owner,sensor,date,latitude,longitude,relative_humidity,qcFlag 
COMPS,ioos:station:USF.COMPS:FHP:1,2017-03-01T00:00:00Z,28.1530,-82.8010,89.27,1111122 
COMPS,ioos:station:USF.COMPS:FHP:1,2017-03-01T00:06:00Z,28.1530,-82.8010,89.53,1111122 
COMPS,ioos:station:USF.COMPS:FHP:1,2017-03-01T00:12:00Z,28.1530,-82.8010,89.46,1111122 
COMPS,ioos:station:USF.COMPS:FHP:1,2017-03-01T00:18:00Z,28.1530,-82.8010,89.49,1111122 
COMPS,ioos:station:USF.COMPS:FHP:1,2017-03-01T00:24:00Z,28.1530,-82.8010,89.31,1111122 
COMPS,ioos:station:USF.COMPS:FHP:1,2017-03-01T00:30:00Z,28.1530,-82.8010,88.96,1111122 
COMPS,ioos:station:USF.COMPS:FHP:1,2017-03-01T00:36:00Z,28.1530,-82.8010,89.22,1111122 
COMPS,ioos:station:USF.COMPS:FHP:1,2017-03-01T00:42:00Z,28.1530,-82.8010,89.09,1111122 
COMPS,ioos:station:USF.COMPS:FHP:1,2017-03-01T00:48:00Z,28.1530,-82.8010,88.78,1111122 
COMPS,ioos:station:USF.COMPS:FHP:1,2017-03-01T00:54:00Z,28.1530,-82.8010,88.27,1111122 
COMPS,ioos:station:USF.COMPS:FHP:1,2017-03-01T01:00:00Z,28.1530,-82.8010,87.95,1111122 
COMPS,ioos:station:USF.COMPS:FHP:1,2017-03-01T01:06:00Z,28.1530,-82.8010,88.01,1111122 
COMPS,ioos:station:USF.COMPS:FHP:1,2017-03-01T01:12:00Z,28.1530,-82.8010,88.05,1111122 
COMPS,ioos:station:USF.COMPS:FHP:1,2017-03-01T01:18:00Z,28.1530,-82.8010,88.73,1111122 
COMPS,ioos:station:USF.COMPS:FHP:1,2017-03-01T01:24:00Z,28.1530,-82.8010,89.15,1111122 
COMPS,ioos:station:USF.COMPS:FHP:1,2017-03-01T01:30:00Z,28.1530,-82.8010,88.85,1111122 
COMPS,ioos:station:USF.COMPS:FHP:1,2017-03-01T01:36:00Z,28.1530,-82.8010,89.01,1111122 
COMPS,ioos:station:USF.COMPS:FHP:1,2017-03-01T01:42:00Z,28.1530,-82.8010,88.36,1111122 
COMPS,ioos:station:USF.COMPS:FHP:1,2017-03-01T01:48:00Z,28.1530,-82.8010,88.22,1111122 
COMPS,ioos:station:USF.COMPS:FHP:1,2017-03-01T01:54:00Z,28.1530,-82.8010,88.35,1111122 
COMPS,ioos:station:USF.COMPS:FHP:1,2017-03-01T02:00:00Z,28.1530,-82.8010,88.19,1111122 
COMPS,ioos:station:USF.COMPS:FHP:1,2017-03-01T02:06:00Z,28.1530,-82.8010,88.15,1111122 
COMPS,ioos:station:USF.COMPS:FHP:1,2017-03-01T02:12:00Z,28.1530,-82.8010,88.89,1111122 
COMPS,ioos:station:USF.COMPS:FHP:1,2017-03-01T02:18:00Z,28.1530,-82.8010,89.35,1111122 
COMPS,ioos:station:USF.COMPS:FHP:1,2017-03-01T02:24:00Z,28.1530,-82.8010,89.95,1111122 
COMPS,ioos:station:USF.COMPS:FHP:1,2017-03-01T02:30:00Z,28.1530,-82.8010,90.16,1111122 
COMPS,ioos:station:USF.COMPS:FHP:1,2017-03-01T02:36:00Z,28.1530,-82.8010,89.78,1111122 
COMPS,ioos:station:USF.COMPS:FHP:1,2017-03-01T02:42:00Z,28.1530,-82.8010,89.51,1111122 
COMPS,ioos:station:USF.COMPS:FHP:1,2017-03-01T02:48:00Z,28.1530,-82.8010,89.82,1111122 
COMPS,ioos:station:USF.COMPS:FHP:1,2017-03-01T02:54:00Z,28.1530,-82.8010,89.52,1111122 
COMPS,ioos:station:USF.COMPS:FHP:1,2017-03-01T03:00:00Z,28.1530,-82.8010,89.48,1111122 
COMPS,ioos:station:USF.COMPS:FHP:1,2017-03-01T03:06:00Z,28.1530,-82.8010,89.73,1111122 
COMPS,ioos:station:USF.COMPS:FHP:1,2017-03-01T03:12:00Z,28.1530,-82.8010,89.42,1111122 
COMPS,ioos:station:USF.COMPS:FHP:1,2017-03-01T03:18:00Z,28.1530,-82.8010,88.96,1111122 
COMPS,ioos:station:USF.COMPS:FHP:1,2017-03-01T03:24:00Z,28.1530,-82.8010,89.06,1111122 
COMPS,ioos:station:USF.COMPS:FHP:1,2017-03-01T03:30:00Z,28.1530,-82.8010,89.22,1111122 
COMPS,ioos:station:USF.COMPS:FHP:1,2017-03-01T03:36:00Z,28.1530,-82.8010,89.37,1111122 
COMPS,ioos:station:USF.COMPS:FHP:1,2017-03-01T03:42:00Z,28.1530,-82.8010,89.53,1111122 
COMPS,ioos:station:USF.COMPS:FHP:1,2017-03-01T03:48:00Z,28.1530,-82.8010,89.48,1111122 
COMPS,ioos:station:USF.COMPS:FHP:1,2017-03-01T03:54:00Z,28.1530,-82.8010,89.27,1111122 
COMPS,ioos:station:USF.COMPS:FHP:1,2017-03-01T04:00:00Z,28.1530,-82.8010,89.59,1111122 
COMPS,ioos:station:USF.COMPS:FHP:1,2017-03-01T04:06:00Z,28.1530,-82.8010,89.63,1111122 
COMPS,ioos:station:USF.COMPS:FHP:1,2017-03-01T04:12:00Z,28.1530,-82.8010,89.71,1111122 
COMPS,ioos:station:USF.COMPS:FHP:1,2017-03-01T04:18:00Z,28.1530,-82.8010,89.72,1111122 
COMPS,ioos:station:USF.COMPS:FHP:1,2017-03-01T04:24:00Z,28.1530,-82.8010,89.0,1111122 
COMPS,ioos:station:USF.COMPS:FHP:1,2017-03-01T04:30:00Z,28.1530,-82.8010,89.38,1111122 
COMPS,ioos:station:USF.COMPS:FHP:1,2017-03-01T04:36:00Z,28.1530,-82.8010,89.26,1111122 
COMPS,ioos:station:USF.COMPS:FHP:1,2017-03-01T04:42:00Z,28.1530,-82.8010,89.48,1111122 
COMPS,ioos:station:USF.COMPS:FHP:1,2017-03-01T04:48:00Z,28.1530,-82.8010,90.03,1111122 
COMPS,ioos:station:USF.COMPS:FHP:1,2017-03-01T04:54:00Z,28.1530,-82.8010,90.41,1111122 
COMPS,ioos:station:USF.COMPS:FHP:1,2017-03-01T05:00:00Z,28.1530,-82.8010,90.3,1111122 
COMPS,ioos:station:USF.COMPS:FHP:1,2017-03-01T05:06:00Z,28.1530,-82.8010,90.51,1111122 
COMPS,ioos:station:USF.COMPS:FHP:1,2017-03-01T05:12:00Z,28.1530,-82.8010,90.32,1111122 
COMPS,ioos:station:USF.COMPS:FHP:1,2017-03-01T05:18:00Z,28.1530,-82.8010,90.23,1111122 
COMPS,ioos:station:USF.COMPS:FHP:1,2017-03-01T05:24:00Z,28.1530,-82.8010,90.24,1111122 
COMPS,ioos:station:USF.COMPS:FHP:1,2017-03-01T05:30:00Z,28.1530,-82.8010,89.9,1111122 
COMPS,ioos:station:USF.COMPS:FHP:1,2017-03-01T05:36:00Z,28.1530,-82.8010,89.79,1111122 
COMPS,ioos:station:USF.COMPS:FHP:1,2017-03-01T05:42:00Z,28.1530,-82.8010,89.56,1111122 
COMPS,ioos:station:USF.COMPS:FHP:1,2017-03-01T05:48:00Z,28.1530,-82.8010,89.48,1111122 
COMPS,ioos:station:USF.COMPS:FHP:1,2017-03-01T05:54:00Z,28.1530,-82.8010,89.58,1111122 
COMPS,ioos:station:USF.COMPS:FHP:1,2017-03-01T06:00:00Z,28.1530,-82.8010,89.64,1111122 
COMPS,ioos:station:USF.COMPS:FHP:1,2017-03-01T06:06:00Z,28.1530,-82.8010,89.91,1111122 
COMPS,ioos:station:USF.COMPS:FHP:1,2017-03-01T06:12:00Z,28.1530,-82.8010,89.96,1111122 
COMPS,ioos:station:USF.COMPS:FHP:1,2017-03-01T06:18:00Z,28.1530,-82.8010,89.95,1111122 
COMPS,ioos:station:USF.COMPS:FHP:1,2017-03-01T06:24:00Z,28.1530,-82.8010,89.74,1111122 
COMPS,ioos:station:USF.COMPS:FHP:1,2017-03-01T06:30:00Z,28.1530,-82.8010,89.35,1111122 
COMPS,ioos:station:USF.COMPS:FHP:1,2017-03-01T06:36:00Z,28.1530,-82.8010,89.22,1111122 
COMPS,ioos:station:USF.COMPS:FHP:1,2017-03-01T06:42:00Z,28.1530,-82.8010,88.88,1111122 
COMPS,ioos:station:USF.COMPS:FHP:1,2017-03-01T06:48:00Z,28.1530,-82.8010,88.79,1111122 
COMPS,ioos:station:USF.COMPS:FHP:1,2017-03-01T06:54:00Z,28.1530,-82.8010,88.6,1111122 
COMPS,ioos:station:USF.COMPS:FHP:1,2017-03-01T07:00:00Z,28.1530,-82.8010,88.14,1111122 
COMPS,ioos:station:USF.COMPS:FHP:1,2017-03-01T07:06:00Z,28.1530,-82.8010,87.95,1111122 
COMPS,ioos:station:USF.COMPS:FHP:1,2017-03-01T07:12:00Z,28.1530,-82.8010,87.62,1111122 
COMPS,ioos:station:USF.COMPS:FHP:1,2017-03-01T07:18:00Z,28.1530,-82.8010,87.37,1111122 
COMPS,ioos:station:USF.COMPS:FHP:1,2017-03-01T07:24:00Z,28.1530,-82.8010,87.41,1111122 
COMPS,ioos:station:USF.COMPS:FHP:1,2017-03-01T07:30:00Z,28.1530,-82.8010,87.09,1111122 
COMPS,ioos:station:USF.COMPS:FHP:1,2017-03-01T07:36:00Z,28.1530,-82.8010,86.92,1111122 
COMPS,ioos:station:USF.COMPS:FHP:1,2017-03-01T07:42:00Z,28.1530,-82.8010,86.43,1111122 
COMPS,ioos:station:USF.COMPS:FHP:1,2017-03-01T07:48:00Z,28.1530,-82.8010,86.36,1111122 
COMPS,ioos:station:USF.COMPS:FHP:1,2017-03-01T07:54:00Z,28.1530,-82.8010,86.36,1111122 
COMPS,ioos:station:USF.COMPS:FHP:1,2017-03-01T08:00:00Z,28.1530,-82.8010,86.37,1111122 
COMPS,ioos:station:USF.COMPS:FHP:1,2017-03-01T08:06:00Z,28.1530,-82.8010,86.7,1111122 
COMPS,ioos:station:USF.COMPS:FHP:1,2017-03-01T08:12:00Z,28.1530,-82.8010,87.1,1111122 
COMPS,ioos:station:USF.COMPS:FHP:1,2017-03-01T08:18:00Z,28.1530,-82.8010,87.26,1111122 
COMPS,ioos:station:USF.COMPS:FHP:1,2017-03-01T08:24:00Z,28.1530,-82.8010,87.73,1111122 
COMPS,ioos:station:USF.COMPS:FHP:1,2017-03-01T08:30:00Z,28.1530,-82.8010,87.65,1111122 
COMPS,ioos:station:USF.COMPS:FHP:1,2017-03-01T08:36:00Z,28.1530,-82.8010,87.78,1111122 
COMPS,ioos:station:USF.COMPS:FHP:1,2017-03-01T08:42:00Z,28.1530,-82.8010,88.0,1111122 
COMPS,ioos:station:USF.COMPS:FHP:1,2017-03-01T08:48:00Z,28.1530,-82.8010,88.04,1111122 
COMPS,ioos:station:USF.COMPS:FHP:1,2017-03-01T08:54:00Z,28.1530,-82.8010,87.84,1111122 
COMPS,ioos:station:USF.COMPS:FHP:1,2017-03-01T09:00:00Z,28.1530,-82.8010,87.77,1111122 
COMPS,ioos:station:USF.COMPS:FHP:1,2017-03-01T09:06:00Z,28.1530,-82.8010,87.6,1111122 
COMPS,ioos:station:USF.COMPS:FHP:1,2017-03-01T09:12:00Z,28.1530,-82.8010,87.38,1111122 
COMPS,ioos:station:USF.COMPS:FHP:1,2017-03-01T09:18:00Z,28.1530,-82.8010,86.89,1111122 
COMPS,ioos:station:USF.COMPS:FHP:1,2017-03-01T09:24:00Z,28.1530,-82.8010,87.13,1111122 
COMPS,ioos:station:USF.COMPS:FHP:1,2017-03-01T09:30:00Z,28.1530,-82.8010,86.34,1111122 
COMPS,ioos:station:USF.COMPS:FHP:1,2017-03-01T09:36:00Z,28.1530,-82.8010,86.64,1111122 
COMPS,ioos:station:USF.COMPS:FHP:1,2017-03-01T09:42:00Z,28.1530,-82.8010,86.56,1111122 
COMPS,ioos:station:USF.COMPS:FHP:1,2017-03-01T09:48:00Z,28.1530,-82.8010,86.32,1111122 
COMPS,ioos:station:USF.COMPS:FHP:1,2017-03-01T09:54:00Z,28.1530,-82.8010,86.66,1111122 
COMPS,ioos:station:USF.COMPS:FHP:1,2017-03-01T10:00:00Z,28.1530,-82.8010,86.95,1111122 
COMPS,ioos:station:USF.COMPS:FHP:1,2017-03-01T10:06:00Z,28.1530,-82.8010,87.3,1111122 
COMPS,ioos:station:USF.COMPS:FHP:1,2017-03-01T10:12:00Z,28.1530,-82.8010,87.18,1111122 
COMPS,ioos:station:USF.COMPS:FHP:1,2017-03-01T10:18:00Z,28.1530,-82.8010,86.8,1111122 
COMPS,ioos:station:USF.COMPS:FHP:1,2017-03-01T10:24:00Z,28.1530,-82.8010,86.9,1111122 
COMPS,ioos:station:USF.COMPS:FHP:1,2017-03-01T10:30:00Z,28.1530,-82.8010,87.15,1111122 
COMPS,ioos:station:USF.COMPS:FHP:1,2017-03-01T10:36:00Z,28.1530,-82.8010,87.48,1111122 
COMPS,ioos:station:USF.COMPS:FHP:1,2017-03-01T10:42:00Z,28.1530,-82.8010,87.46,1111122 
COMPS,ioos:station:USF.COMPS:FHP:1,2017-03-01T10:48:00Z,28.1530,-82.8010,87.76,1111122 
COMPS,ioos:station:USF.COMPS:FHP:1,2017-03-01T10:54:00Z,28.1530,-82.8010,88.13,1111122 
COMPS,ioos:station:USF.COMPS:FHP:1,2017-03-01T11:00:00Z,28.1530,-82.8010,88.36,1111122 
COMPS,ioos:station:USF.COMPS:FHP:1,2017-03-01T11:06:00Z,28.1530,-82.8010,88.47,1111122 
COMPS,ioos:station:USF.COMPS:FHP:1,2017-03-01T11:12:00Z,28.1530,-82.8010,88.38,1111122 
COMPS,ioos:station:USF.COMPS:FHP:1,2017-03-01T11:18:00Z,28.1530,-82.8010,88.42,1111122 
COMPS,ioos:station:USF.COMPS:FHP:1,2017-03-01T11:24:00Z,28.1530,-82.8010,88.17,1111122 
COMPS,ioos:station:USF.COMPS:FHP:1,2017-03-01T11:30:00Z,28.1530,-82.8010,88.2,1111122 
COMPS,ioos:station:USF.COMPS:FHP:1,2017-03-01T11:36:00Z,28.1530,-82.8010,88.01,1111122 
COMPS,ioos:station:USF.COMPS:FHP:1,2017-03-01T11:42:00Z,28.1530,-82.8010,88.17,1111122 
COMPS,ioos:station:USF.COMPS:FHP:1,2017-03-01T11:48:00Z,28.1530,-82.8010,88.01,1111122 
COMPS,ioos:station:USF.COMPS:FHP:1,2017-03-01T11:54:00Z,28.1530,-82.8010,87.74,1111122 
COMPS,ioos:station:USF.COMPS:FHP:1,2017-03-01T12:00:00Z,28.1530,-82.8010,87.75,1111122 
COMPS,ioos:station:USF.COMPS:FHP:1,2017-03-01T12:06:00Z,28.1530,-82.8010,87.98,1111122 
COMPS,ioos:station:USF.COMPS:FHP:1,2017-03-01T12:12:00Z,28.1530,-82.8010,88.83,1111122 
COMPS,ioos:station:USF.COMPS:FHP:1,2017-03-01T12:18:00Z,28.1530,-82.8010,88.73,1111122 
COMPS,ioos:station:USF.COMPS:FHP:1,2017-03-01T12:24:00Z,28.1530,-82.8010,88.61,1111122 
COMPS,ioos:station:USF.COMPS:FHP:1,2017-03-01T12:30:00Z,28.1530,-82.8010,88.87,1111122 
COMPS,ioos:station:USF.COMPS:FHP:1,2017-03-01T12:36:00Z,28.1530,-82.8010,89.21,1111122 
COMPS,ioos:station:USF.COMPS:FHP:1,2017-03-01T12:42:00Z,28.1530,-82.8010,89.34,1111122 
COMPS,ioos:station:USF.COMPS:FHP:1,2017-03-01T12:48:00Z,28.1530,-82.8010,89.67,1111122 
COMPS,ioos:station:USF.COMPS:FHP:1,2017-03-01T12:54:00Z,28.1530,-82.8010,89.57,1111122 
COMPS,ioos:station:USF.COMPS:FHP:1,2017-03-01T13:00:00Z,28.1530,-82.8010,89.57,1111122 
COMPS,ioos:station:USF.COMPS:FHP:1,2017-03-01T13:06:00Z,28.1530,-82.8010,89.39,1111122 
COMPS,ioos:station:USF.COMPS:FHP:1,2017-03-01T13:12:00Z,28.1530,-82.8010,88.98,1111122 
COMPS,ioos:station:USF.COMPS:FHP:1,2017-03-01T13:18:00Z,28.1530,-82.8010,89.31,1111122 
COMPS,ioos:station:USF.COMPS:FHP:1,2017-03-01T13:24:00Z,28.1530,-82.8010,89.26,1111122 
COMPS,ioos:station:USF.COMPS:FHP:1,2017-03-01T13:30:00Z,28.1530,-82.8010,88.6,1111122 
COMPS,ioos:station:USF.COMPS:FHP:1,2017-03-01T13:36:00Z,28.1530,-82.8010,87.7,1111122 
COMPS,ioos:station:USF.COMPS:FHP:1,2017-03-01T13:42:00Z,28.1530,-82.8010,87.2,1111122 
COMPS,ioos:station:USF.COMPS:FHP:1,2017-03-01T13:48:00Z,28.1530,-82.8010,86.67,1111122 
COMPS,ioos:station:USF.COMPS:FHP:1,2017-03-01T13:54:00Z,28.1530,-82.8010,85.82,1111122 
COMPS,ioos:station:USF.COMPS:FHP:1,2017-03-01T14:00:00Z,28.1530,-82.8010,85.6,1111122 
COMPS,ioos:station:USF.COMPS:FHP:1,2017-03-01T14:06:00Z,28.1530,-82.8010,83.98,1111122 
COMPS,ioos:station:USF.COMPS:FHP:1,2017-03-01T14:12:00Z,28.1530,-82.8010,80.12,1111122 
COMPS,ioos:station:USF.COMPS:FHP:1,2017-03-01T14:18:00Z,28.1530,-82.8010,78.58,1111122 
COMPS,ioos:station:USF.COMPS:FHP:1,2017-03-01T14:24:00Z,28.1530,-82.8010,77.88,1111122 
COMPS,ioos:station:USF.COMPS:FHP:1,2017-03-01T14:30:00Z,28.1530,-82.8010,76.48,1111122 
COMPS,ioos:station:USF.COMPS:FHP:1,2017-03-01T14:36:00Z,28.1530,-82.8010,75.56,1111122 
COMPS,ioos:station:USF.COMPS:FHP:1,2017-03-01T14:42:00Z,28.1530,-82.8010,74.82,1111122 
COMPS,ioos:station:USF.COMPS:FHP:1,2017-03-01T14:48:00Z,28.1530,-82.8010,75.47,1111122 
COMPS,ioos:station:USF.COMPS:FHP:1,2017-03-01T14:54:00Z,28.1530,-82.8010,74.23,1111122 
COMPS,ioos:station:USF.COMPS:FHP:1,2017-03-01T15:00:00Z,28.1530,-82.8010,74.59,1111122 
COMPS,ioos:station:USF.COMPS:FHP:1,2017-03-01T15:06:00Z,28.1530,-82.8010,74.3,1111122 
COMPS,ioos:station:USF.COMPS:FHP:1,2017-03-01T15:12:00Z,28.1530,-82.8010,74.24,1111122 
COMPS,ioos:station:USF.COMPS:FHP:1,2017-03-01T15:18:00Z,28.1530,-82.8010,75.51,1111122 
COMPS,ioos:station:USF.COMPS:FHP:1,2017-03-01T15:24:00Z,28.1530,-82.8010,73.73,1111122 
COMPS,ioos:station:USF.COMPS:FHP:1,2017-03-01T15:30:00Z,28.1530,-82.8010,75.03,1111122 
COMPS,ioos:station:USF.COMPS:FHP:1,2017-03-01T15:36:00Z,28.1530,-82.8010,74.62,1111122 
COMPS,ioos:station:USF.COMPS:FHP:1,2017-03-01T15:42:00Z,28.1530,-82.8010,73.48,1111122 
COMPS,ioos:station:USF.COMPS:FHP:1,2017-03-01T15:48:00Z,28.1530,-82.8010,71.97,1111122 
COMPS,ioos:station:USF.COMPS:FHP:1,2017-03-01T15:54:00Z,28.1530,-82.8010,71.96,1111122 
COMPS,ioos:station:USF.COMPS:FHP:1,2017-03-01T16:00:00Z,28.1530,-82.8010,71.3,1111122 
COMPS,ioos:station:USF.COMPS:FHP:1,2017-03-01T16:06:00Z,28.1530,-82.8010,70.54,1111122 
COMPS,ioos:station:USF.COMPS:FHP:1,2017-03-01T16:12:00Z,28.1530,-82.8010,69.42,1111122 
COMPS,ioos:station:USF.COMPS:FHP:1,2017-03-01T16:18:00Z,28.1530,-82.8010,69.58,1111122 
COMPS,ioos:station:USF.COMPS:FHP:1,2017-03-01T16:24:00Z,28.1530,-82.8010,68.53,1111122 
COMPS,ioos:station:USF.COMPS:FHP:1,2017-03-01T16:30:00Z,28.1530,-82.8010,67.09,1111122 
COMPS,ioos:station:USF.COMPS:FHP:1,2017-03-01T16:36:00Z,28.1530,-82.8010,69.29,1111122 
COMPS,ioos:station:USF.COMPS:FHP:1,2017-03-01T16:42:00Z,28.1530,-82.8010,69.31,1111122 
COMPS,ioos:station:USF.COMPS:FHP:1,2017-03-01T16:48:00Z,28.1530,-82.8010,74.11,1111122 
COMPS,ioos:station:USF.COMPS:FHP:1,2017-03-01T16:54:00Z,28.1530,-82.8010,78.72,1111122 
COMPS,ioos:station:USF.COMPS:FHP:1,2017-03-01T17:00:00Z,28.1530,-82.8010,76.82,1111122 
COMPS,ioos:station:USF.COMPS:FHP:1,2017-03-01T17:06:00Z,28.1530,-82.8010,77.73,1111122 
COMPS,ioos:station:USF.COMPS:FHP:1,2017-03-01T17:12:00Z,28.1530,-82.8010,77.37,1111122 
COMPS,ioos:station:USF.COMPS:FHP:1,2017-03-01T17:18:00Z,28.1530,-82.8010,76.6,1111122 
COMPS,ioos:station:USF.COMPS:FHP:1,2017-03-01T17:24:00Z,28.1530,-82.8010,75.91,1111122 
COMPS,ioos:station:USF.COMPS:FHP:1,2017-03-01T17:30:00Z,28.1530,-82.8010,76.9,1111122 
COMPS,ioos:station:USF.COMPS:FHP:1,2017-03-01T17:36:00Z,28.1530,-82.8010,77.48,1111122 
COMPS,ioos:station:USF.COMPS:FHP:1,2017-03-01T17:42:00Z,28.1530,-82.8010,77.81,1111122 
COMPS,ioos:station:USF.COMPS:FHP:1,2017-03-01T17:48:00Z,28.1530,-82.8010,78.35,1111122 
COMPS,ioos:station:USF.COMPS:FHP:1,2017-03-01T17:54:00Z,28.1530,-82.8010,78.95,1111122 
COMPS,ioos:station:USF.COMPS:FHP:1,2017-03-01T18:00:00Z,28.1530,-82.8010,78.59,1111122 
COMPS,ioos:station:USF.COMPS:FHP:1,2017-03-01T18:06:00Z,28.1530,-82.8010,79.47,1111122 
COMPS,ioos:station:USF.COMPS:FHP:1,2017-03-01T18:12:00Z,28.1530,-82.8010,79.24,1111122 
COMPS,ioos:station:USF.COMPS:FHP:1,2017-03-01T18:18:00Z,28.1530,-82.8010,79.23,1111122 
COMPS,ioos:station:USF.COMPS:FHP:1,2017-03-01T18:24:00Z,28.1530,-82.8010,79.46,1111122 
COMPS,ioos:station:USF.COMPS:FHP:1,2017-03-01T18:30:00Z,28.1530,-82.8010,78.52,1111122 
COMPS,ioos:station:USF.COMPS:FHP:1,2017-03-01T18:36:00Z,28.1530,-82.8010,79.84,1111122 
COMPS,ioos:station:USF.COMPS:FHP:1,2017-03-01T18:42:00Z,28.1530,-82.8010,79.65,1111122 
COMPS,ioos:station:USF.COMPS:FHP:1,2017-03-01T18:48:00Z,28.1530,-82.8010,78.9,1111122 
COMPS,ioos:station:USF.COMPS:FHP:1,2017-03-01T18:54:00Z,28.1530,-82.8010,79.35,1111122 
COMPS,ioos:station:USF.COMPS:FHP:1,2017-03-01T19:00:00Z,28.1530,-82.8010,79.93,1111122 
COMPS,ioos:station:USF.COMPS:FHP:1,2017-03-01T19:06:00Z,28.1530,-82.8010,79.54,1111122 
COMPS,ioos:station:USF.COMPS:FHP:1,2017-03-01T19:12:00Z,28.1530,-82.8010,79.05,1111122 
COMPS,ioos:station:USF.COMPS:FHP:1,2017-03-01T19:18:00Z,28.1530,-82.8010,79.82,1111122 
COMPS,ioos:station:USF.COMPS:FHP:1,2017-03-01T19:24:00Z,28.1530,-82.8010,81.03,1111122 
COMPS,ioos:station:USF.COMPS:FHP:1,2017-03-01T19:30:00Z,28.1530,-82.8010,81.88,1111122 
COMPS,ioos:station:USF.COMPS:FHP:1,2017-03-01T19:36:00Z,28.1530,-82.8010,82.42,1111122 
COMPS,ioos:station:USF.COMPS:FHP:1,2017-03-01T19:42:00Z,28.1530,-82.8010,82.21,1111122 
COMPS,ioos:station:USF.COMPS:FHP:1,2017-03-01T19:48:00Z,28.1530,-82.8010,82.47,1111122 
COMPS,ioos:station:USF.COMPS:FHP:1,2017-03-01T19:54:00Z,28.1530,-82.8010,82.43,1111122 
COMPS,ioos:station:USF.COMPS:FHP:1,2017-03-01T20:00:00Z,28.1530,-82.8010,83.37,1111122 
COMPS,ioos:station:USF.COMPS:FHP:1,2017-03-01T20:06:00Z,28.1530,-82.8010,83.23,1111122 
COMPS,ioos:station:USF.COMPS:FHP:1,2017-03-01T20:12:00Z,28.1530,-82.8010,83.33,1111122 
COMPS,ioos:station:USF.COMPS:FHP:1,2017-03-01T20:18:00Z,28.1530,-82.8010,83.66,1111122 
COMPS,ioos:station:USF.COMPS:FHP:1,2017-03-01T20:24:00Z,28.1530,-82.8010,84.04,1111122 
COMPS,ioos:station:USF.COMPS:FHP:1,2017-03-01T20:30:00Z,28.1530,-82.8010,83.9,1111122 
COMPS,ioos:station:USF.COMPS:FHP:1,2017-03-01T20:36:00Z,28.1530,-82.8010,83.7,1111122 
COMPS,ioos:station:USF.COMPS:FHP:1,2017-03-01T20:42:00Z,28.1530,-82.8010,84.18,1111122 
COMPS,ioos:station:USF.COMPS:FHP:1,2017-03-01T20:48:00Z,28.1530,-82.8010,84.38,1111122 
COMPS,ioos:station:USF.COMPS:FHP:1,2017-03-01T20:54:00Z,28.1530,-82.8010,84.44,1111122 
COMPS,ioos:station:USF.COMPS:FHP:1,2017-03-01T21:00:00Z,28.1530,-82.8010,83.95,1111122 
COMPS,ioos:station:USF.COMPS:FHP:1,2017-03-01T21:06:00Z,28.1530,-82.8010,83.67,1111122 
COMPS,ioos:station:USF.COMPS:FHP:1,2017-03-01T21:12:00Z,28.1530,-82.8010,83.9,1111122 
COMPS,ioos:station:USF.COMPS:FHP:1,2017-03-01T21:18:00Z,28.1530,-82.8010,84.44,1111122 
COMPS,ioos:station:USF.COMPS:FHP:1,2017-03-01T21:24:00Z,28.1530,-82.8010,84.6,1111122 
COMPS,ioos:station:USF.COMPS:FHP:1,2017-03-01T21:30:00Z,28.1530,-82.8010,84.65,1111122 
COMPS,ioos:station:USF.COMPS:FHP:1,2017-03-01T21:36:00Z,28.1530,-82.8010,84.74,1111122 
COMPS,ioos:station:USF.COMPS:FHP:1,2017-03-01T21:42:00Z,28.1530,-82.8010,83.21,1111122 
COMPS,ioos:station:USF.COMPS:FHP:1,2017-03-01T21:48:00Z,28.1530,-82.8010,83.32,1111122 
COMPS,ioos:station:USF.COMPS:FHP:1,2017-03-01T21:54:00Z,28.1530,-82.8010,83.37,1111122 
COMPS,ioos:station:USF.COMPS:FHP:1,2017-03-01T22:00:00Z,28.1530,-82.8010,83.39,1111122 
COMPS,ioos:station:USF.COMPS:FHP:1,2017-03-01T22:06:00Z,28.1530,-82.8010,83.44,1111122 
COMPS,ioos:station:USF.COMPS:FHP:1,2017-03-01T22:12:00Z,28.1530,-82.8010,83.86,1111122 
COMPS,ioos:station:USF.COMPS:FHP:1,2017-03-01T22:18:00Z,28.1530,-82.8010,83.64,1111122 
COMPS,ioos:station:USF.COMPS:FHP:1,2017-03-01T22:24:00Z,28.1530,-82.8010,82.67,1111122 
COMPS,ioos:station:USF.COMPS:FHP:1,2017-03-01T22:30:00Z,28.1530,-82.8010,82.31,1111122 
COMPS,ioos:station:USF.COMPS:FHP:1,2017-03-01T22:36:00Z,28.1530,-82.8010,81.78,1111122 
COMPS,ioos:station:USF.COMPS:FHP:1,2017-03-01T22:42:00Z,28.1530,-82.8010,83.14,1111122 
COMPS,ioos:station:USF.COMPS:FHP:1,2017-03-01T22:48:00Z,28.1530,-82.8010,83.15,1111122 
COMPS,ioos:station:USF.COMPS:FHP:1,2017-03-01T22:54:00Z,28.1530,-82.8010,83.45,1111122 
COMPS,ioos:station:USF.COMPS:FHP:1,2017-03-01T23:00:00Z,28.1530,-82.8010,83.75,1111122 
COMPS,ioos:station:USF.COMPS:FHP:1,2017-03-01T23:06:00Z,28.1530,-82.8010,84.36,1111122 
COMPS,ioos:station:USF.COMPS:FHP:1,2017-03-01T23:12:00Z,28.1530,-82.8010,83.77,1111122 
COMPS,ioos:station:USF.COMPS:FHP:1,2017-03-01T23:18:00Z,28.1530,-82.8010,84.77,1111122 
COMPS,ioos:station:USF.COMPS:FHP:1,2017-03-01T23:24:00Z,28.1530,-82.8010,84.73,1111122 
COMPS,ioos:station:USF.COMPS:FHP:1,2017-03-01T23:30:00Z,28.1530,-82.8010,84.58,1111122 
COMPS,ioos:station:USF.COMPS:FHP:1,2017-03-01T23:36:00Z,28.1530,-82.8010,85.02,1111122 
COMPS,ioos:station:USF.COMPS:FHP:1,2017-03-01T23:42:00Z,28.1530,-82.8010,84.88,1111122 
COMPS,ioos:station:USF.COMPS:FHP:1,2017-03-01T23:48:00Z,28.1530,-82.8010,86.07,1111122 
COMPS,ioos:station:USF.COMPS:FHP:1,2017-03-01T23:54:00Z,28.1530,-82.8010,86.57,1111122 
COMPS,ioos:station:USF.COMPS:FHP:1,2017-03-02T00:00:00Z,28.1530,-82.8010,86.58,1111122 
COMPS,ioos:station:USF.COMPS:FHP:1,2017-03-02T00:06:00Z,28.1530,-82.8010,87.05,1111122 
COMPS,ioos:station:USF.COMPS:FHP:1,2017-03-02T00:12:00Z,28.1530,-82.8010,86.97,1111122 
COMPS,ioos:station:USF.COMPS:FHP:1,2017-03-02T00:18:00Z,28.1530,-82.8010,87.17,1111122 
COMPS,ioos:station:USF.COMPS:FHP:1,2017-03-02T00:24:00Z,28.1530,-82.8010,87.02,1111122 
COMPS,ioos:station:USF.COMPS:FHP:1,2017-03-02T00:30:00Z,28.1530,-82.8010,86.98,1111122 
COMPS,ioos:station:USF.COMPS:FHP:1,2017-03-02T00:36:00Z,28.1530,-82.8010,86.89,1111122 
COMPS,ioos:station:USF.COMPS:FHP:1,2017-03-02T00:42:00Z,28.1530,-82.8010,86.91,1111122 
COMPS,ioos:station:USF.COMPS:FHP:1,2017-03-02T00:48:00Z,28.1530,-82.8010,86.73,1111122 
COMPS,ioos:station:USF.COMPS:FHP:1,2017-03-02T00:54:00Z,28.1530,-82.8010,86.89,1111122 
COMPS,ioos:station:USF.COMPS:FHP:1,2017-03-02T01:00:00Z,28.1530,-82.8010,86.25,1111122 
COMPS,ioos:station:USF.COMPS:FHP:1,2017-03-02T01:06:00Z,28.1530,-82.8010,86.23,1111122 
COMPS,ioos:station:USF.COMPS:FHP:1,2017-03-02T01:12:00Z,28.1530,-82.8010,86.38,1111122 
COMPS,ioos:station:USF.COMPS:FHP:1,2017-03-02T01:18:00Z,28.1530,-82.8010,85.79,1111122 
COMPS,ioos:station:USF.COMPS:FHP:1,2017-03-02T01:24:00Z,28.1530,-82.8010,85.11,1111122 
COMPS,ioos:station:USF.COMPS:FHP:1,2017-03-02T01:30:00Z,28.1530,-82.8010,85.39,1111122 
COMPS,ioos:station:USF.COMPS:FHP:1,2017-03-02T01:36:00Z,28.1530,-82.8010,85.2,1111122 
COMPS,ioos:station:USF.COMPS:FHP:1,2017-03-02T01:42:00Z,28.1530,-82.8010,85.22,1111122 
COMPS,ioos:station:USF.COMPS:FHP:1,2017-03-02T01:48:00Z,28.1530,-82.8010,85.72,1111122 
COMPS,ioos:station:USF.COMPS:FHP:1,2017-03-02T01:54:00Z,28.1530,-82.8010,86.6,1111122 
COMPS,ioos:station:USF.COMPS:FHP:1,2017-03-02T02:00:00Z,28.1530,-82.8010,86.75,1111122 
COMPS,ioos:station:USF.COMPS:FHP:1,2017-03-02T02:06:00Z,28.1530,-82.8010,86.88,1111122 
COMPS,ioos:station:USF.COMPS:FHP:1,2017-03-02T02:12:00Z,28.1530,-82.8010,86.99,1111122 
COMPS,ioos:station:USF.COMPS:FHP:1,2017-03-02T02:18:00Z,28.1530,-82.8010,87.02,1111122 
COMPS,ioos:station:USF.COMPS:FHP:1,2017-03-02T02:24:00Z,28.1530,-82.8010,86.95,1111122 
COMPS,ioos:station:USF.COMPS:FHP:1,2017-03-02T02:30:00Z,28.1530,-82.8010,86.73,1111122 
COMPS,ioos:station:USF.COMPS:FHP:1,2017-03-02T02:36:00Z,28.1530,-82.8010,87.02,1111122 
COMPS,ioos:station:USF.COMPS:FHP:1,2017-03-02T02:42:00Z,28.1530,-82.8010,87.61,1111122 
COMPS,ioos:station:USF.COMPS:FHP:1,2017-03-02T02:48:00Z,28.1530,-82.8010,87.53,1111122 
COMPS,ioos:station:USF.COMPS:FHP:1,2017-03-02T02:54:00Z,28.1530,-82.8010,87.63,1111122 
COMPS,ioos:station:USF.COMPS:FHP:1,2017-03-02T03:00:00Z,28.1530,-82.8010,87.51,1111122 
COMPS,ioos:station:USF.COMPS:FHP:1,2017-03-02T03:06:00Z,28.1530,-82.8010,87.86,1111122 